User: anonymous   Login
Location: Fauquembergues
(50.6005°N, 2.0987°E)
Time: 22:53:40
(UTC+00:00)
Language:

Cosmos 1470 Rocket - Orbit

View from above orbital plane
View from above orbital plane
View from above satellite
View from above satellite

Ground track
Ground track

The orbit data is extracted from the following two-line orbital elements,

1 14148U 83061B   20272.36826793 +.00000096 +00000-0 +87337-5 0  9991
2 14148 082.5195 226.3144 0021138 344.3340 172.1246 14.83347003991474
Epoch (UTC): 28 September 2020 08:50:18
Eccentricity: 0.0021138
inclination: 82.5195°
perigee height: 604 km
apogee height: 633 km
right ascension of ascending node: 226.3144°
argument of perigee: 344.3340°
revolutions per day: 14.83347003
mean anomaly at epoch: 172.1246°
orbit number at epoch: 99147

The dashed part of the orbit path shows where the satellite is in the earth's shadow,  

DLR